Simultaneous Nadir Overpasses (SNOs) Predictions

Prediction of SNOs between AURA and NPP Satellite Orbit:

Table of predicted SNOs for the next 14.0 days since TLE Epoch: 6/14/2024
Index Date (AURA) Time (AURA) Lat,Lon (AURA) SZA (AURA ) Date (NPP) Time (NPP) Lat,Lon (NPP) SZA (NPP ) Distance(km) Time Diff (sec)
1 06/16/2024 11:05:43 -80.58, 102.04 112.75 06/16/2024 11:04:41 -80.58, 101.98 112.70 1.22 62
2 06/16/2024 11:55:03 80.66, -89.36 67.09 06/16/2024 11:55:22 80.66, -89.52 67.11 3.02 19
3 06/19/2024 00:50:00 80.62, 76.43 67.14 06/19/2024 00:49:14 80.62, 76.35 67.19 1.40 46
4 06/19/2024 01:39:21 -80.71,-114.87 113.04 06/19/2024 01:39:55 -80.71,-114.88 113.06 0.40 34
5 06/21/2024 14:34:18 -80.64, 50.59 112.89 06/21/2024 14:33:48 -80.64, 50.60 112.87 0.35 30
6 06/21/2024 15:23:38 80.71,-140.88 66.97 06/21/2024 15:24:29 80.72,-140.90 66.94 0.30 51
7 06/24/2024 04:18:33 80.67, 24.84 67.12 06/24/2024 04:18:21 80.67, 24.86 67.12 0.50 12
8 06/24/2024 05:07:55 -80.73,-166.72 113.02 06/24/2024 05:09:03 -80.74,-166.69 113.07 0.76 68
9 06/26/2024 17:13:39 80.24,-173.25 67.99 06/26/2024 17:12:25 80.32,-173.36 68.05 9.39 74



Historial Predications of SNOs between AURA and NPP
